RASCOM-QAF 1R

Last updated on Sun Jun 21 2026 00:03:04 GMT+0000 (Coordinated Universal Time)

1 36831U 10037B 26170.96484391 .00000013 00000+0 00000+0 0 9994 2 36831 0.0069 34.7365 0006607 50.5185 173.1762 1.00272251 58335
UTC large
Height (km)
Speed (km/s)
/
Latitude / Longitude
Inclination (degrees)
Orbital Period (minutes)
Azimuth
Elevation
Range (km)
Doppler Factor

Next 0 passes for location: London (51.5072 / 0.1276)

No passes found over London.
RASCOM-QAF 1R